Location: Shepherdstown, WV
(39.4326°N, 77.8042°W)
Time: 01:14:04
(UTC-04:00)

S-56A Canister/Altair - Pass Details

Date: 02 August 2021
Orbit: 632 x 2500 km, 38.9° (Epoch: 27 September)

Event Time Altitude Azimuth Distance (km) Brightness Sun altitude
Rises 20:35:22 0° 286° (WNW) 6,130 14.5 -3.1°
Reaches altitude 10° 20:39:24 10° 284° (WNW) 5,163 13.5 -3.8°
Maximum altitude 20:54:10 62° 209° (SSW) 2,548 10.2 -6.4°
Drops below altitude 10° 21:06:08 10° 133° (SE) 4,254 10.7 -8.4°
Enters shadow 21:06:33 - 132° (SE) 4,359 10.7 -8.4°
